Year,Month,Day,Hour,Minute,Value (Times are PST for temperature in C)
2010,09,22,00,00,8.00
2010,09,22,00,01,8.00
2010,09,22,00,02,8.00
2010,09,22,00,03,8.00
2010,09,22,00,04,8.00
2010,09,22,00,05,8.00
2010,09,22,00,06,8.00
2010,09,22,00,07,8.00
2010,09,22,00,08,7.90
2010,09,22,00,09,7.90
2010,09,22,00,10,7.90
2010,09,22,00,11,7.90
2010,09,22,00,12,7.90
2010,09,22,00,13,7.90
2010,09,22,00,14,7.90
2010,09,22,00,15,7.90
2010,09,22,00,16,7.90
2010,09,22,00,17,7.90
2010,09,22,00,18,7.90
2010,09,22,00,19,7.90
2010,09,22,00,20,7.90
2010,09,22,00,21,7.90
2010,09,22,00,22,7.90
2010,09,22,00,23,7.90
2010,09,22,00,24,7.90
2010,09,22,00,25,7.90
2010,09,22,00,26,7.90
2010,09,22,00,27,7.90
2010,09,22,00,28,7.90
2010,09,22,00,29,7.90
2010,09,22,00,30,7.90
2010,09,22,00,31,7.90
2010,09,22,00,32,7.90
2010,09,22,00,33,7.90
2010,09,22,00,34,7.80
2010,09,22,00,35,7.80
2010,09,22,00,36,7.80
2010,09,22,00,37,7.80
2010,09,22,00,38,7.80
2010,09,22,00,39,7.80
2010,09,22,00,40,7.80
2010,09,22,00,41,7.80
2010,09,22,00,42,7.80
2010,09,22,00,43,7.80
2010,09,22,00,44,7.80
2010,09,22,00,45,7.80
2010,09,22,00,46,7.80
2010,09,22,00,47,7.80
2010,09,22,00,48,7.80
2010,09,22,00,49,7.80
2010,09,22,00,50,7.80
2010,09,22,00,51,7.80
2010,09,22,00,52,7.80
2010,09,22,00,53,7.80
2010,09,22,00,54,7.80
2010,09,22,00,55,7.70
2010,09,22,00,56,7.70
2010,09,22,00,57,7.70
2010,09,22,00,58,7.70
2010,09,22,00,59,7.70
2010,09,22,01,00,7.70
2010,09,22,01,01,7.70
2010,09,22,01,02,7.70
2010,09,22,01,03,7.70
2010,09,22,01,04,7.70
2010,09,22,01,05,7.70
2010,09,22,01,06,7.70
2010,09,22,01,07,7.70
2010,09,22,01,08,7.70
2010,09,22,01,09,7.70
2010,09,22,01,10,7.70
2010,09,22,01,11,7.70
2010,09,22,01,12,7.70
2010,09,22,01,13,7.70
2010,09,22,01,14,7.70
2010,09,22,01,15,7.70
2010,09,22,01,16,7.70
2010,09,22,01,17,7.70
2010,09,22,01,18,7.70
2010,09,22,01,19,7.70
2010,09,22,01,20,7.70
2010,09,22,01,21,7.70
2010,09,22,01,22,7.70
2010,09,22,01,23,7.70
2010,09,22,01,24,7.70
2010,09,22,01,25,7.70
2010,09,22,01,26,7.70
2010,09,22,01,27,7.70
2010,09,22,01,28,7.80
2010,09,22,01,29,7.80
2010,09,22,01,30,7.80
2010,09,22,01,31,7.80
2010,09,22,01,32,7.80
2010,09,22,01,33,7.80
2010,09,22,01,34,7.80
2010,09,22,01,35,7.80
2010,09,22,01,36,7.80
2010,09,22,01,37,7.80
2010,09,22,01,38,7.80
2010,09,22,01,39,7.80
2010,09,22,01,40,7.80
2010,09,22,01,41,7.80
2010,09,22,01,42,7.80
2010,09,22,01,43,7.80
2010,09,22,01,44,7.80
2010,09,22,01,45,7.80
2010,09,22,01,46,7.80
2010,09,22,01,47,7.80
2010,09,22,01,48,7.80
2010,09,22,01,49,7.80
2010,09,22,01,50,7.80
2010,09,22,01,51,7.80
2010,09,22,01,52,7.70
2010,09,22,01,53,7.70
2010,09,22,01,54,7.70
2010,09,22,01,55,7.70
2010,09,22,01,56,7.70
2010,09,22,01,57,7.70
2010,09,22,01,58,7.70
2010,09,22,01,59,7.70
2010,09,22,02,00,7.70
2010,09,22,02,01,7.70
2010,09,22,02,02,7.70
2010,09,22,02,03,7.70
2010,09,22,02,04,7.70
2010,09,22,02,05,7.70
2010,09,22,02,06,7.70
2010,09,22,02,07,7.70
2010,09,22,02,08,7.70
2010,09,22,02,09,7.70
2010,09,22,02,10,7.70
2010,09,22,02,11,7.70
2010,09,22,02,12,7.70
2010,09,22,02,13,7.70
2010,09,22,02,14,7.70
2010,09,22,02,15,7.70
2010,09,22,02,16,7.70
2010,09,22,02,17,7.70
2010,09,22,02,18,7.70
2010,09,22,02,19,7.70
2010,09,22,02,20,7.70
2010,09,22,02,21,7.70
2010,09,22,02,22,7.70
2010,09,22,02,23,7.60
2010,09,22,02,24,7.60
2010,09,22,02,25,7.60
2010,09,22,02,26,7.60
2010,09,22,02,27,7.60
2010,09,22,02,28,7.60
2010,09,22,02,29,7.60
2010,09,22,02,30,7.60
2010,09,22,02,31,7.60
2010,09,22,02,32,7.60
2010,09,22,02,33,7.60
2010,09,22,02,34,7.60
2010,09,22,02,35,7.60
2010,09,22,02,36,7.60
2010,09,22,02,37,7.60
2010,09,22,02,38,7.60
2010,09,22,02,39,7.60
2010,09,22,02,40,7.60
2010,09,22,02,41,7.60
2010,09,22,02,42,7.60
2010,09,22,02,43,7.60
2010,09,22,02,44,7.60
2010,09,22,02,45,7.60
2010,09,22,02,46,7.60
2010,09,22,02,47,7.60
2010,09,22,02,48,7.60
2010,09,22,02,49,7.60
2010,09,22,02,50,7.60
2010,09,22,02,51,7.60
2010,09,22,02,52,7.60
2010,09,22,02,53,7.60
2010,09,22,02,54,7.60
2010,09,22,02,55,7.60
2010,09,22,02,56,7.50
2010,09,22,02,57,7.50
2010,09,22,02,58,7.50
2010,09,22,02,59,7.50
2010,09,22,03,00,7.50
2010,09,22,03,01,7.50
2010,09,22,03,02,7.50
2010,09,22,03,03,7.50
2010,09,22,03,04,7.50
2010,09,22,03,05,7.50
2010,09,22,03,06,7.50
2010,09,22,03,07,7.50
2010,09,22,03,08,7.50
2010,09,22,03,09,7.50
2010,09,22,03,10,7.50
2010,09,22,03,11,7.50
2010,09,22,03,12,7.50
2010,09,22,03,13,7.50
2010,09,22,03,14,7.50
2010,09,22,03,15,7.50
2010,09,22,03,16,7.50
2010,09,22,03,17,7.50
2010,09,22,03,18,7.50
2010,09,22,03,19,7.50
2010,09,22,03,20,7.50
2010,09,22,03,21,7.50
2010,09,22,03,22,7.50
2010,09,22,03,23,7.50
2010,09,22,03,24,7.40
2010,09,22,03,25,7.40
2010,09,22,03,26,7.40
2010,09,22,03,27,7.40
2010,09,22,03,28,7.40
2010,09,22,03,29,7.40
2010,09,22,03,30,7.40
2010,09,22,03,31,7.40
2010,09,22,03,32,7.40
2010,09,22,03,33,7.40
2010,09,22,03,34,7.40
2010,09,22,03,35,7.40
2010,09,22,03,36,7.40
2010,09,22,03,37,7.40
2010,09,22,03,38,7.40
2010,09,22,03,39,7.40
2010,09,22,03,40,7.40
2010,09,22,03,41,7.40
2010,09,22,03,42,7.40
2010,09,22,03,43,7.40
2010,09,22,03,44,7.40
2010,09,22,03,45,7.40
2010,09,22,03,46,7.40
2010,09,22,03,47,7.40
2010,09,22,03,48,7.40
2010,09,22,03,49,7.40
2010,09,22,03,50,7.40
2010,09,22,03,51,7.40
2010,09,22,03,52,7.40
2010,09,22,03,53,7.40
2010,09,22,03,54,7.40
2010,09,22,03,55,7.40
2010,09,22,03,56,7.40
2010,09,22,03,57,7.40
2010,09,22,03,58,7.30
2010,09,22,03,59,7.30
2010,09,22,04,00,7.30
2010,09,22,04,01,7.30
2010,09,22,04,02,7.30
2010,09,22,04,03,7.30
2010,09,22,04,04,7.30
2010,09,22,04,05,7.30
2010,09,22,04,06,7.30
2010,09,22,04,07,7.30
2010,09,22,04,08,7.30
2010,09,22,04,09,7.30
2010,09,22,04,10,7.30
2010,09,22,04,11,7.30
2010,09,22,04,12,7.30
2010,09,22,04,13,7.30
2010,09,22,04,14,7.30
2010,09,22,04,15,7.30
2010,09,22,04,16,7.30
2010,09,22,04,17,7.30
2010,09,22,04,18,7.30
2010,09,22,04,19,7.30
2010,09,22,04,20,7.30
2010,09,22,04,21,7.20
2010,09,22,04,22,7.20
2010,09,22,04,23,7.20
2010,09,22,04,24,7.20
2010,09,22,04,25,7.20
2010,09,22,04,26,7.20
2010,09,22,04,27,7.20
2010,09,22,04,28,7.20
2010,09,22,04,29,7.20
2010,09,22,04,30,7.20
2010,09,22,04,31,7.20
2010,09,22,04,32,7.20
2010,09,22,04,33,7.20
2010,09,22,04,34,7.20
2010,09,22,04,35,7.20
2010,09,22,04,36,7.20
2010,09,22,04,37,7.20
2010,09,22,04,38,7.20
2010,09,22,04,39,7.20
2010,09,22,04,40,7.20
2010,09,22,04,41,7.20
2010,09,22,04,42,7.20
2010,09,22,04,43,7.20
2010,09,22,04,44,7.20
2010,09,22,04,45,7.20
2010,09,22,04,46,7.20
2010,09,22,04,47,7.20
2010,09,22,04,48,7.20
2010,09,22,04,49,7.20
2010,09,22,04,50,7.20
2010,09,22,04,51,7.20
2010,09,22,04,52,7.20
2010,09,22,04,53,7.20
2010,09,22,04,54,7.20
2010,09,22,04,55,7.20
2010,09,22,04,56,7.20
2010,09,22,04,57,7.20
2010,09,22,04,58,7.20
2010,09,22,04,59,7.20
2010,09,22,05,00,7.20
2010,09,22,05,01,7.20
2010,09,22,05,02,7.20
2010,09,22,05,03,7.20
2010,09,22,05,04,7.10
2010,09,22,05,05,7.10
2010,09,22,05,06,7.10
2010,09,22,05,07,7.10
2010,09,22,05,08,7.10
2010,09,22,05,09,7.10
2010,09,22,05,10,7.10
2010,09,22,05,11,7.10
2010,09,22,05,12,7.10
2010,09,22,05,13,7.10
2010,09,22,05,14,7.10
2010,09,22,05,15,7.10
2010,09,22,05,16,7.10
2010,09,22,05,17,7.10
2010,09,22,05,18,7.10
2010,09,22,05,19,7.10
2010,09,22,05,20,7.10
2010,09,22,05,21,7.10
2010,09,22,05,22,7.10
2010,09,22,05,23,7.10
2010,09,22,05,24,7.10
2010,09,22,05,25,7.10
2010,09,22,05,26,7.10
2010,09,22,05,27,7.10
2010,09,22,05,28,7.10
2010,09,22,05,29,7.10
2010,09,22,05,30,7.00
2010,09,22,05,31,7.00
2010,09,22,05,32,7.10
2010,09,22,05,33,7.10
2010,09,22,05,34,7.10
2010,09,22,05,35,7.10
2010,09,22,05,36,7.10
2010,09,22,05,37,7.10
2010,09,22,05,38,7.10
2010,09,22,05,39,7.10
2010,09,22,05,40,7.10
2010,09,22,05,41,7.10
2010,09,22,05,42,7.00
2010,09,22,05,43,7.00
2010,09,22,05,44,7.00
2010,09,22,05,45,7.00
2010,09,22,05,46,7.00
2010,09,22,05,47,7.00
2010,09,22,05,48,7.00
2010,09,22,05,49,7.00
2010,09,22,05,50,7.00
2010,09,22,05,51,7.00
2010,09,22,05,52,7.00
2010,09,22,05,53,7.00
2010,09,22,05,54,7.00
2010,09,22,05,55,7.00
2010,09,22,05,56,7.00
2010,09,22,05,57,7.00
2010,09,22,05,58,7.10
2010,09,22,05,59,7.10
2010,09,22,06,00,7.10
2010,09,22,06,01,7.10
2010,09,22,06,02,7.10
2010,09,22,06,03,7.10
2010,09,22,06,04,7.10
2010,09,22,06,05,7.10
2010,09,22,06,06,7.10
2010,09,22,06,07,7.10
2010,09,22,06,08,7.10
2010,09,22,06,09,7.10
2010,09,22,06,10,7.10
2010,09,22,06,11,7.10
2010,09,22,06,12,7.10
2010,09,22,06,13,7.10
2010,09,22,06,14,7.10
2010,09,22,06,15,7.10
2010,09,22,06,16,7.10
2010,09,22,06,17,7.10
2010,09,22,06,18,7.10
2010,09,22,06,19,7.10
2010,09,22,06,20,7.10
2010,09,22,06,21,7.10
2010,09,22,06,22,7.00
2010,09,22,06,23,7.00
2010,09,22,06,24,7.00
2010,09,22,06,25,7.00
2010,09,22,06,26,7.00
2010,09,22,06,27,7.00
2010,09,22,06,28,7.00
2010,09,22,06,29,7.00
2010,09,22,06,30,7.00
2010,09,22,06,31,6.90
2010,09,22,06,32,6.90
2010,09,22,06,33,6.90
2010,09,22,06,34,6.90
2010,09,22,06,35,6.90
2010,09,22,06,36,6.90
2010,09,22,06,37,6.90
2010,09,22,06,38,6.90
2010,09,22,06,39,6.90
2010,09,22,06,40,6.90
2010,09,22,06,41,6.90
2010,09,22,06,42,6.90
2010,09,22,06,43,6.90
2010,09,22,06,44,6.90
2010,09,22,06,45,6.90
2010,09,22,06,46,6.90
2010,09,22,06,47,6.90
2010,09,22,06,48,6.90
2010,09,22,06,49,6.90
2010,09,22,06,50,6.90
2010,09,22,06,51,6.90
2010,09,22,06,52,6.90
2010,09,22,06,53,6.90
2010,09,22,06,54,6.90
2010,09,22,06,55,6.90
2010,09,22,06,56,6.90
2010,09,22,06,57,6.90
2010,09,22,06,58,6.90
2010,09,22,06,59,6.90
2010,09,22,07,00,6.90
2010,09,22,07,01,6.90
2010,09,22,07,02,6.90
2010,09,22,07,03,6.90
2010,09,22,07,04,6.90
2010,09,22,07,05,6.90
2010,09,22,07,06,6.90
2010,09,22,07,07,6.90
2010,09,22,07,08,6.90
2010,09,22,07,09,6.90
2010,09,22,07,10,6.90
2010,09,22,07,11,6.90
2010,09,22,07,12,6.90
2010,09,22,07,13,6.90
2010,09,22,07,14,6.90
2010,09,22,07,15,6.90
2010,09,22,07,16,6.90
2010,09,22,07,17,6.90
2010,09,22,07,18,6.90
2010,09,22,07,19,6.90
2010,09,22,07,20,6.90
2010,09,22,07,21,6.90
2010,09,22,07,22,6.90
2010,09,22,07,23,6.90
2010,09,22,07,24,6.90
2010,09,22,07,25,6.90
2010,09,22,07,26,6.90
2010,09,22,07,27,6.90
2010,09,22,07,28,6.90
2010,09,22,07,29,6.90
2010,09,22,07,30,6.90
2010,09,22,07,31,6.90
2010,09,22,07,32,6.90
2010,09,22,07,33,6.90
2010,09,22,07,34,6.90
2010,09,22,07,35,7.00
2010,09,22,07,36,6.90
2010,09,22,07,37,6.90
2010,09,22,07,38,6.90
2010,09,22,07,39,6.90
2010,09,22,07,40,7.00
2010,09,22,07,41,7.00
2010,09,22,07,42,7.00
2010,09,22,07,43,7.00
2010,09,22,07,44,7.00
2010,09,22,07,45,7.00
2010,09,22,07,46,7.00
2010,09,22,07,47,7.00
2010,09,22,07,48,7.00
2010,09,22,07,49,7.00
2010,09,22,07,50,7.00
2010,09,22,07,51,7.00
2010,09,22,07,52,7.10
2010,09,22,07,53,7.10
2010,09,22,07,54,7.10
2010,09,22,07,55,7.10
2010,09,22,07,56,7.10
2010,09,22,07,57,7.20
2010,09,22,07,58,7.20
2010,09,22,07,59,7.20
2010,09,22,08,00,7.20
2010,09,22,08,01,7.20
2010,09,22,08,02,7.20
2010,09,22,08,03,7.20
2010,09,22,08,04,7.20
2010,09,22,08,05,7.20
2010,09,22,08,06,7.20
2010,09,22,08,07,7.20
2010,09,22,08,08,7.20
2010,09,22,08,09,7.20
2010,09,22,08,10,7.30
2010,09,22,08,11,7.30
2010,09,22,08,12,7.30
2010,09,22,08,13,7.30
2010,09,22,08,14,7.30
2010,09,22,08,15,7.40
2010,09,22,08,16,7.40
2010,09,22,08,17,7.50
2010,09,22,08,18,7.50
2010,09,22,08,19,7.60
2010,09,22,08,20,7.60
2010,09,22,08,21,7.60
2010,09,22,08,22,7.70
2010,09,22,08,23,7.70
2010,09,22,08,24,7.80
2010,09,22,08,25,7.80
2010,09,22,08,26,7.90
2010,09,22,08,27,8.10
2010,09,22,08,28,8.20
2010,09,22,08,29,8.20
2010,09,22,08,30,8.30
2010,09,22,08,31,8.40
2010,09,22,08,32,8.40
2010,09,22,08,33,8.40
2010,09,22,08,34,8.40
2010,09,22,08,35,8.40
2010,09,22,08,36,8.40
2010,09,22,08,37,8.50
2010,09,22,08,38,8.50
2010,09,22,08,39,8.50
2010,09,22,08,40,8.50
2010,09,22,08,41,8.50
2010,09,22,08,42,8.50
2010,09,22,08,43,8.50
2010,09,22,08,44,8.50
2010,09,22,08,45,8.50
2010,09,22,08,46,8.50
2010,09,22,08,47,8.60
2010,09,22,08,48,8.60
2010,09,22,08,49,8.60
2010,09,22,08,50,8.60
2010,09,22,08,51,8.60
2010,09,22,08,52,8.60
2010,09,22,08,53,8.60
2010,09,22,08,54,8.70
2010,09,22,08,55,8.70
2010,09,22,08,56,8.70
2010,09,22,08,57,8.80
2010,09,22,08,58,8.80
2010,09,22,08,59,8.80
2010,09,22,09,00,8.90
2010,09,22,09,01,8.90
2010,09,22,09,02,9.00
2010,09,22,09,03,9.00
2010,09,22,09,04,9.10
2010,09,22,09,05,9.20
2010,09,22,09,06,9.20
2010,09,22,09,07,9.20
2010,09,22,09,08,9.20
2010,09,22,09,09,9.30
2010,09,22,09,10,9.30
2010,09,22,09,11,9.30
2010,09,22,09,12,9.40
2010,09,22,09,13,9.40
2010,09,22,09,14,9.40
2010,09,22,09,15,9.50
2010,09,22,09,16,9.50
2010,09,22,09,17,9.50
2010,09,22,09,18,9.60
2010,09,22,09,19,9.60
2010,09,22,09,20,9.60
2010,09,22,09,21,9.60
2010,09,22,09,22,9.60
2010,09,22,09,23,9.70
2010,09,22,09,24,9.70
2010,09,22,09,25,9.80
2010,09,22,09,26,9.80
2010,09,22,09,27,9.90
2010,09,22,09,28,10.00
2010,09,22,09,29,10.00
2010,09,22,09,30,10.10
2010,09,22,09,31,10.20
2010,09,22,09,32,10.30
2010,09,22,09,33,10.40
2010,09,22,09,34,10.40
2010,09,22,09,35,10.50
2010,09,22,09,36,10.60
2010,09,22,09,37,10.70
2010,09,22,09,38,10.70
2010,09,22,09,39,10.80
2010,09,22,09,40,10.80
2010,09,22,09,41,10.90
2010,09,22,09,42,10.90
2010,09,22,09,43,10.90
2010,09,22,09,44,10.90
2010,09,22,09,45,11.00
2010,09,22,09,46,11.00
2010,09,22,09,47,11.00
2010,09,22,09,48,11.10
2010,09,22,09,49,11.10
2010,09,22,09,50,11.20
2010,09,22,09,51,11.20
2010,09,22,09,52,11.30
2010,09,22,09,53,11.40
2010,09,22,09,54,11.50
2010,09,22,09,55,11.50
2010,09,22,09,56,11.60
2010,09,22,09,57,11.60
2010,09,22,09,58,11.70
2010,09,22,09,59,11.70
2010,09,22,10,00,11.80
2010,09,22,10,01,11.80
2010,09,22,10,02,11.90
2010,09,22,10,03,11.90
2010,09,22,10,04,11.90
2010,09,22,10,05,11.90
2010,09,22,10,06,12.00
2010,09,22,10,07,12.00
2010,09,22,10,08,12.00
2010,09,22,10,09,12.10
2010,09,22,10,10,12.10
2010,09,22,10,11,12.10
2010,09,22,10,12,12.10
2010,09,22,10,13,12.20
2010,09,22,10,14,12.20
2010,09,22,10,15,12.30
2010,09,22,10,16,12.30
2010,09,22,10,17,12.30
2010,09,22,10,18,12.40
2010,09,22,10,19,12.40
2010,09,22,10,20,12.40
2010,09,22,10,21,12.50
2010,09,22,10,22,12.50
2010,09,22,10,23,12.60
2010,09,22,10,24,12.60
2010,09,22,10,25,12.60
2010,09,22,10,26,12.70
2010,09,22,10,27,12.70
2010,09,22,10,28,12.70
2010,09,22,10,29,12.70
2010,09,22,10,30,12.80
2010,09,22,10,31,12.80
2010,09,22,10,32,12.80
2010,09,22,10,33,12.90
2010,09,22,10,34,12.90
2010,09,22,10,35,12.90
2010,09,22,10,36,13.00
2010,09,22,10,37,13.00
2010,09,22,10,38,13.00
2010,09,22,10,39,13.00
2010,09,22,10,40,13.10
2010,09,22,10,41,13.10
2010,09,22,10,42,13.10
2010,09,22,10,43,13.10
2010,09,22,10,44,13.10
2010,09,22,10,45,13.10
2010,09,22,10,46,13.10
2010,09,22,10,47,13.20
2010,09,22,10,48,13.20
2010,09,22,10,49,13.20
2010,09,22,10,50,13.20
2010,09,22,10,51,13.30
2010,09,22,10,52,13.30
2010,09,22,10,53,13.30
2010,09,22,10,54,13.30
2010,09,22,10,55,13.30
2010,09,22,10,56,13.30
2010,09,22,10,57,13.30
2010,09,22,10,58,13.30
2010,09,22,10,59,13.30
2010,09,22,11,00,13.30
2010,09,22,11,01,13.30
2010,09,22,11,02,13.40
2010,09,22,11,03,13.40
2010,09,22,11,04,13.50
2010,09,22,11,05,13.50
2010,09,22,11,06,13.60
2010,09,22,11,07,13.60
2010,09,22,11,08,13.60
2010,09,22,11,09,13.60
2010,09,22,11,10,13.70
2010,09,22,11,11,13.70
2010,09,22,11,12,13.70
2010,09,22,11,13,13.60
2010,09,22,11,14,13.60
2010,09,22,11,15,13.60
2010,09,22,11,16,13.60
2010,09,22,11,17,13.70
2010,09,22,11,18,13.70
2010,09,22,11,19,13.70
2010,09,22,11,20,13.70
2010,09,22,11,21,13.70
2010,09,22,11,22,13.70
2010,09,22,11,23,13.70
2010,09,22,11,24,13.60
2010,09,22,11,25,13.60
2010,09,22,11,26,13.60
2010,09,22,11,27,13.60
2010,09,22,11,28,13.60
2010,09,22,11,29,13.70
2010,09,22,11,30,13.70
2010,09,22,11,31,13.70
2010,09,22,11,32,13.70
2010,09,22,11,33,13.80
2010,09,22,11,34,13.80
2010,09,22,11,35,13.80
2010,09,22,11,36,13.90
2010,09,22,11,37,13.90
2010,09,22,11,38,13.90
2010,09,22,11,39,14.00
2010,09,22,11,40,14.00
2010,09,22,11,41,14.00
2010,09,22,11,42,13.90
2010,09,22,11,43,13.90
2010,09,22,11,44,13.90
2010,09,22,11,45,13.90
2010,09,22,11,46,13.90
2010,09,22,11,47,13.90
2010,09,22,11,48,13.90
2010,09,22,11,49,13.90
2010,09,22,11,50,14.00
2010,09,22,11,51,14.00
2010,09,22,11,52,14.10
2010,09,22,11,53,14.10
2010,09,22,11,54,14.20
2010,09,22,11,55,14.20
2010,09,22,11,56,14.30
2010,09,22,11,57,14.30
2010,09,22,11,58,14.30
2010,09,22,11,59,14.30
2010,09,22,12,00,14.30
2010,09,22,12,01,14.40
2010,09,22,12,02,14.40
2010,09,22,12,03,14.40
2010,09,22,12,04,14.50
2010,09,22,12,05,14.50
2010,09,22,12,06,14.50
2010,09,22,12,07,14.60
2010,09,22,12,08,14.50
2010,09,22,12,09,14.60
2010,09,22,12,10,14.60
2010,09,22,12,11,14.60
2010,09,22,12,12,14.60
2010,09,22,12,13,14.70
2010,09,22,12,14,14.70
2010,09,22,12,15,14.70
2010,09,22,12,16,14.80
2010,09,22,12,17,14.80
2010,09,22,12,18,14.90
2010,09,22,12,19,15.00
2010,09,22,12,20,15.00
2010,09,22,12,21,15.00
2010,09,22,12,22,15.00
2010,09,22,12,23,15.10
2010,09,22,12,24,15.20
2010,09,22,12,25,15.30
2010,09,22,12,26,15.30
2010,09,22,12,27,15.30
2010,09,22,12,28,15.30
2010,09,22,12,29,15.30
2010,09,22,12,30,15.30
2010,09,22,12,31,15.30
2010,09,22,12,32,15.30
2010,09,22,12,33,15.30
2010,09,22,12,34,15.40
2010,09,22,12,35,15.40
2010,09,22,12,36,15.50
2010,09,22,12,37,15.60
2010,09,22,12,38,15.60
2010,09,22,12,39,15.70
2010,09,22,12,40,15.70
2010,09,22,12,41,15.70
2010,09,22,12,42,15.70
2010,09,22,12,43,15.70
2010,09,22,12,44,15.60
2010,09,22,12,45,15.60
2010,09,22,12,46,15.60
2010,09,22,12,47,15.60
2010,09,22,12,48,15.50
2010,09,22,12,49,15.50
2010,09,22,12,50,15.40
2010,09,22,12,51,15.40
2010,09,22,12,52,15.40
2010,09,22,12,53,15.40
2010,09,22,12,54,15.40
2010,09,22,12,55,15.40
2010,09,22,12,56,15.40
2010,09,22,12,57,15.40
2010,09,22,12,58,15.40
2010,09,22,12,59,15.40
2010,09,22,13,00,15.50
2010,09,22,13,01,15.50
2010,09,22,13,02,15.50
2010,09,22,13,03,15.60
2010,09,22,13,04,15.70
2010,09,22,13,05,15.70
2010,09,22,13,06,15.70
2010,09,22,13,07,15.70
2010,09,22,13,08,15.80
2010,09,22,13,09,15.80
2010,09,22,13,10,15.80
2010,09,22,13,11,15.80
2010,09,22,13,12,15.80
2010,09,22,13,13,15.80
2010,09,22,13,14,15.80
2010,09,22,13,15,15.80
2010,09,22,13,16,15.80
2010,09,22,13,17,15.80
2010,09,22,13,18,15.70
2010,09,22,13,19,15.70
2010,09,22,13,20,15.70
2010,09,22,13,21,15.70
2010,09,22,13,22,15.80
2010,09,22,13,23,15.80
2010,09,22,13,24,15.80
2010,09,22,13,25,15.80
2010,09,22,13,26,15.80
2010,09,22,13,27,15.80
2010,09,22,13,28,15.80
2010,09,22,13,29,15.90
2010,09,22,13,30,15.90
2010,09,22,13,31,15.90
2010,09,22,13,32,16.00
2010,09,22,13,33,16.00
2010,09,22,13,34,16.10
2010,09,22,13,35,16.10
2010,09,22,13,36,16.10
2010,09,22,13,37,16.10
2010,09,22,13,38,16.20
2010,09,22,13,39,16.20
2010,09,22,13,40,16.30
2010,09,22,13,41,16.30
2010,09,22,13,42,16.30
2010,09,22,13,43,16.30
2010,09,22,13,44,16.30
2010,09,22,13,45,16.30
2010,09,22,13,46,16.30
2010,09,22,13,47,16.30
2010,09,22,13,48,16.30
2010,09,22,13,49,16.30
2010,09,22,13,50,16.30
2010,09,22,13,51,16.30
2010,09,22,13,52,16.30
2010,09,22,13,53,16.30
2010,09,22,13,54,16.30
2010,09,22,13,55,16.30
2010,09,22,13,56,16.30
2010,09,22,13,57,16.40
2010,09,22,13,58,16.40
2010,09,22,13,59,16.50
2010,09,22,14,00,16.50
2010,09,22,14,01,16.60
2010,09,22,14,02,16.60
2010,09,22,14,03,16.60
2010,09,22,14,04,16.50
2010,09,22,14,05,16.50
2010,09,22,14,06,16.40
2010,09,22,14,07,16.40
2010,09,22,14,08,16.40
2010,09,22,14,09,16.50
2010,09,22,14,10,16.50
2010,09,22,14,11,16.50
2010,09,22,14,12,16.60
2010,09,22,14,13,16.60
2010,09,22,14,14,16.60
2010,09,22,14,15,16.60
2010,09,22,14,16,16.60
2010,09,22,14,17,16.60
2010,09,22,14,18,16.50
2010,09,22,14,19,16.40
2010,09,22,14,20,16.40
2010,09,22,14,21,16.30
2010,09,22,14,22,16.30
2010,09,22,14,23,16.30
2010,09,22,14,24,16.30
2010,09,22,14,25,16.30
2010,09,22,14,26,16.30
2010,09,22,14,27,16.40
2010,09,22,14,28,16.40
2010,09,22,14,29,16.50
2010,09,22,14,30,16.60
2010,09,22,14,31,16.70
2010,09,22,14,32,16.70
2010,09,22,14,33,16.60
2010,09,22,14,34,16.60
2010,09,22,14,35,16.60
2010,09,22,14,36,16.60
2010,09,22,14,37,16.60
2010,09,22,14,38,16.60
2010,09,22,14,39,16.60
2010,09,22,14,40,16.70
2010,09,22,14,41,16.70
2010,09,22,14,42,16.70
2010,09,22,14,43,16.70
2010,09,22,14,44,16.80
2010,09,22,14,45,16.80
2010,09,22,14,46,16.90
2010,09,22,14,47,17.00
2010,09,22,14,48,17.10
2010,09,22,14,49,17.10
2010,09,22,14,50,17.20
2010,09,22,14,51,17.30
2010,09,22,14,52,17.30
2010,09,22,14,53,17.30
2010,09,22,14,54,17.30
2010,09,22,14,55,17.30
2010,09,22,14,56,17.30
2010,09,22,14,57,17.20
2010,09,22,14,58,17.20
2010,09,22,14,59,17.20
2010,09,22,15,00,17.10
2010,09,22,15,01,17.10
2010,09,22,15,02,17.10
2010,09,22,15,03,17.10
2010,09,22,15,04,17.10
2010,09,22,15,05,17.10
2010,09,22,15,06,17.20
2010,09,22,15,07,17.20
2010,09,22,15,08,17.30
2010,09,22,15,09,17.30
2010,09,22,15,10,17.30
2010,09,22,15,11,17.20
2010,09,22,15,12,17.20
2010,09,22,15,13,17.20
2010,09,22,15,14,17.20
2010,09,22,15,15,17.20
2010,09,22,15,16,17.30
2010,09,22,15,17,17.30
2010,09,22,15,18,17.30
2010,09,22,15,19,17.30
2010,09,22,15,20,17.30
2010,09,22,15,21,17.30
2010,09,22,15,22,17.30
2010,09,22,15,23,17.30
2010,09,22,15,24,17.30
2010,09,22,15,25,17.30
2010,09,22,15,26,17.40
2010,09,22,15,27,17.40
2010,09,22,15,28,17.50
2010,09,22,15,29,17.50
2010,09,22,15,30,17.50
2010,09,22,15,31,17.50
2010,09,22,15,32,17.40
2010,09,22,15,33,17.40
2010,09,22,15,34,17.30
2010,09,22,15,35,17.20
2010,09,22,15,36,17.20
2010,09,22,15,37,17.10
2010,09,22,15,38,17.10
2010,09,22,15,39,17.20
2010,09,22,15,40,17.10
2010,09,22,15,41,17.10
2010,09,22,15,42,17.10
2010,09,22,15,43,17.10
2010,09,22,15,44,17.10
2010,09,22,15,45,17.20
2010,09,22,15,46,17.20
2010,09,22,15,47,17.20
2010,09,22,15,48,17.30
2010,09,22,15,49,17.30
2010,09,22,15,50,17.30
2010,09,22,15,51,17.30
2010,09,22,15,52,17.40
2010,09,22,15,53,17.40
2010,09,22,15,54,17.40
2010,09,22,15,55,17.40
2010,09,22,15,56,17.40
2010,09,22,15,57,17.40
2010,09,22,15,58,17.40
2010,09,22,15,59,17.40
2010,09,22,16,00,17.40
2010,09,22,16,01,17.40
2010,09,22,16,02,17.40
2010,09,22,16,03,17.40
2010,09,22,16,04,17.40
2010,09,22,16,05,17.30
2010,09,22,16,06,17.30
2010,09,22,16,07,17.30
2010,09,22,16,08,17.30
2010,09,22,16,09,17.30
2010,09,22,16,10,17.30
2010,09,22,16,11,17.30
2010,09,22,16,12,17.40
2010,09,22,16,13,17.40
2010,09,22,16,14,17.40
2010,09,22,16,15,17.40
2010,09,22,16,16,17.40
2010,09,22,16,17,17.40
2010,09,22,16,18,17.40
2010,09,22,16,19,17.30
2010,09,22,16,20,17.30
2010,09,22,16,21,17.30
2010,09,22,16,22,17.30
2010,09,22,16,23,17.30
2010,09,22,16,24,17.30
2010,09,22,16,25,17.30
2010,09,22,16,26,17.30
2010,09,22,16,27,17.20
2010,09,22,16,28,17.20
2010,09,22,16,29,17.20
2010,09,22,16,30,17.20
2010,09,22,16,31,17.20
2010,09,22,16,32,17.20
2010,09,22,16,33,17.10
2010,09,22,16,34,17.10
2010,09,22,16,35,17.10
2010,09,22,16,36,17.10
2010,09,22,16,37,17.10
2010,09,22,16,38,17.10
2010,09,22,16,39,17.10
2010,09,22,16,40,17.10
2010,09,22,16,41,17.10
2010,09,22,16,42,17.10
2010,09,22,16,43,17.10
2010,09,22,16,44,17.10
2010,09,22,16,45,17.10
2010,09,22,16,46,17.10
2010,09,22,16,47,17.10
2010,09,22,16,48,17.20
2010,09,22,16,49,17.20
2010,09,22,16,50,17.10
2010,09,22,16,51,17.10
2010,09,22,16,52,17.10
2010,09,22,16,53,17.10
2010,09,22,16,54,17.10
2010,09,22,16,55,17.10
2010,09,22,16,56,17.10
2010,09,22,16,57,17.10
2010,09,22,16,58,17.10
2010,09,22,16,59,17.10
2010,09,22,17,00,17.10
2010,09,22,17,01,17.10
2010,09,22,17,02,17.00
2010,09,22,17,03,16.90
2010,09,22,17,04,16.90
2010,09,22,17,05,16.80
2010,09,22,17,06,16.80
2010,09,22,17,07,16.70
2010,09,22,17,08,16.70
2010,09,22,17,09,16.70
2010,09,22,17,10,16.70
2010,09,22,17,11,16.60
2010,09,22,17,12,16.60
2010,09,22,17,13,16.50
2010,09,22,17,14,16.50
2010,09,22,17,15,16.40
2010,09,22,17,16,16.40
2010,09,22,17,17,16.30
2010,09,22,17,18,16.30
2010,09,22,17,19,16.20
2010,09,22,17,20,16.20
2010,09,22,17,21,16.20
2010,09,22,17,22,16.10
2010,09,22,17,23,16.10
2010,09,22,17,24,16.10
2010,09,22,17,25,16.00
2010,09,22,17,26,16.00
2010,09,22,17,27,15.90
2010,09,22,17,28,15.90
2010,09,22,17,29,15.90
2010,09,22,17,30,15.90
2010,09,22,17,31,15.80
2010,09,22,17,32,15.80
2010,09,22,17,33,15.80
2010,09,22,17,34,15.80
2010,09,22,17,35,15.80
2010,09,22,17,36,15.80
2010,09,22,17,37,15.80
2010,09,22,17,38,15.80
2010,09,22,17,39,15.70
2010,09,22,17,40,15.70
2010,09,22,17,41,15.70
2010,09,22,17,42,15.70
2010,09,22,17,43,15.70
2010,09,22,17,44,15.70